STEX

Satellite information

Favourite Embed

Satellite Type and Status

PAYLOADIN ORBIT

Key statistics

Satellite STEX at a glance.

Uptime

9715

Days in orbit

Revolutions

≈ 14.5

Per day

Orbit

LEO

Low Earth Orbit

Inclination

85.0

Latest

Satellite identification and parameters

Extended collection of information and parameters for STEX.

Object identification

Identified? True

Debris? False

Object name: STEX

International designator: 1998-055A

Object number (NORAD): 25489

Object ID (CCSDS): 25489

Country: UNITED STATES OF AMERICA (US)

Current information (Y/N): Y

RCS size: MEDIUM

Orbital parameters

Period: 99.221 minutes

Inclination: 84.9862 deg

SMA: 7099.521 km

Apoapsis: 726.746 km

Periapsis: 716.026 km

RAAN: 216.9938 deg

Eccentricy: 0.000755

Argument of periapsis: 325.5811 deg

Mean anomaly: 34.4902 deg

Mean motion: 14.51306658 rev/day

Mean motion (dot): 0.00000715 rev/day2

B* drag term: 0.00017443 1/REarth

Two-line elements (TLE)

Creation date: May 9, 2025, 2:46 a.m.

Reference frame: TEME

Reference center: EARTH

Epoch: May 8, 2025, 4:14 p.m. UTC

TLE line 0: 0 STEX

TLE line 1: 1 25489U 98055A 25128.67651807 .00000715 00000-0 17443-3 0 9998

TLE line 2: 2 25489 84.9862 216.9938 0007550 325.5811 34.4902 14.51306658404657

Live tracking on map

Real-time ground track for satellite STEX.

In-orbit conjunctions

A list of the most updated potential collisions computed for object STEX.

Target Orbit TCA Probability of collision Miss distance Type
FENGYUN 1C DEB SSO 2025-03-30 15:17:17 0.0003653638 268.0 (m) DEBRIS
FENGYUN 1C DEB SSO 2024-12-12 09:36:40 0.0001794229 163.0 (m) DEBRIS
THORAD AGENA D DEB LEO 2024-10-16 15:11:04 0.000292892 885.0 (m) DEBRIS
COSMOS 2251 DEB LEO 2024-08-23 22:18:41 0.0004407921 76.0 (m) DEBRIS

Associated space launch

The STEX (Space Technology Experiments) satellite carried 29 new technologies intended to result in lower cost and higher performance spacecraft for future missions.

STEX was lifted into orbit during the mission ‘Minotaur | NROL-8’, on board a Minotaur space rocket.

The launch took place on Oct. 3, 1998, 10:04 a.m. from Space Launch Complex 576E.

For more information about the launch, click the button.

Launch to space Minotaur | NROL-8
Minotaur | NROL-8

Agency: N/A

Status: Launch Successful

Launch date: Oct. 3, 1998, 10:04 a.m. UTC

Rocket: Minotaur

Launch pad: Space Launch Complex 576E

Location: Vandenberg SFB, CA, USA

...

Latest news about this satellite

There are no fresh news available about this satellite. Check back as we update our databases every day.


Newsletter sign-up

Weekly statistics, charts and insights to help you stay on top of the space industry.